Regional Weather Roundup
Issued by NWS Burlington, VT

Home | Current Version | Previous Version | Text Only | Print | Product List | Glossary On
Versions: 1 2 3 4 5 6 7 8 9 10 11 12 13 14 15 16 17 18 19 20 21 22 23 24 25 26 27 28 29 30 31 32 33 34 35 36 37 38 39 40 41 42 43 44 45 46 47 48 49 50
000
ASUS41 KBTV 291930
RWRBTV
VERMONT REGIONAL WEATHER ROUNDUP
NATIONAL WEATHER SERVICE BURLINGTON VT
300 PM EDT MON AUG 29 2016

NOTE: "FAIR" INDICATES FEW OR NO CLOUDS BELOW 12,000 FEET WITH NO
SIGNIFICANT WEATHER AND/OR OBSTRUCTIONS TO VISIBILITY.

* THESE REPORTS ARE NOT UNDER NWS QUALITY CONTROL AND/OR DO NOT
  REPORT WEATHER SUCH AS PRECIPITATION AND FOG.

VTZ001>019-292000-
_____VERMONT_____


CITY           SKY/WX    TMP DP  RH WIND       PRES   REMARKS
BURLINGTON     MOSUNNY   76  52  43 N16G23    30.16S
MONTPELIER     CLOUDY    67  54  63 NW14      30.20S
MORRISVILLE    PTSUNNY   70  56  61 VRB6      30.17S
ST. JOHNSBURY*   N/A     71  54  54 MISG      30.11F
LYNDONVILLE*   CLOUDY    67  54  62 W12G22    30.16R
MIDDLEBURY*    FAIR      74  55  50 N10G22    30.16S
RUTLAND*       SUNNY     76  56  49 N13G22    30.14F
SPRINGFIELD    MOSUNNY   80  51  36 MISG      30.11F
HIGHGATE*      PTSUNNY   73  57  57 N6        30.16S
NEWPORT*       CLOUDY    68  56  65 NW13G18   30.16R
BENNINGTON     MOSUNNY   79  54  41 N10G18    30.13F
GALLUP MILLS*    N/A     68 N/A N/A MISG        N/A
UNION VILLAGE*   N/A     77 N/A N/A MISG        N/A
MT. MANSFIELD*   N/A     54 N/A N/A NW35        N/A

_____LAKE CHAMPLAIN_____


CITY           SKY/WX    TMP DP  RH WIND       PRES   REMARKS
BURTON ISLAND*   N/A     73  57  56 NW3         N/A
COLCHESTER RF*   N/A     73  57  56 N16         N/A
DIAMOND ISL*     N/A     72  59  64 N20         N/A

$$

NYZ007-026>031-035-052-083-087-292000-
_____NORTHERN NEW YORK_____


CITY           SKY/WX    TMP DP  RH WIND       PRES   REMARKS
PLATTSBURGH    MOSUNNY   76  55  48 NW12      30.16S
SARANAC LAKE   MOSUNNY   69  51  52 VRB6      30.21F
MASSENA        MOSUNNY   75  55  49 N7        30.21F
OGDENSBURG*    SUNNY     79  55  44 NE6       30.20S
POTSDAM*       MOSUNNY   73  57  56 N8        30.20F
STARK FALLS*     N/A     86 N/A N/A N2          N/A
WATERTOWN      MOSUNNY   78  52  40 VRB5      30.20F
FT DRUM        SUNNY     76  56  49 N8        30.21F
ALBANY         MOSUNNY   82  58  43 NW16      30.11S
GLENS FALLS    SUNNY     82  54  37 N12       30.12F

$$
NHZ002-005-011-292000-
_____NEW HAMPSHIRE_____


CITY           SKY/WX    TMP DP  RH WIND       PRES   REMARKS
LEBANON        PTSUNNY   79  54  41 NW15G22   30.12S
KEENE          MOSUNNY   80  55  42 N14       30.09S
MT WASHINGTON  FOG       45  45 100 NW53G67     N/A  VSB 0   WCI  32
PLYMOUTH       CLOUDY    74  52  47 W9G17     30.10R
WHITEFIELD     CLOUDY    70  55  59 NW10      30.13S

$$

_____REGIONAL QUEBEC LOCATIONS_____


CITY           SKY/WX    TMP DP  RH WIND       PRES   REMARKS
MONTREAL       MOSUNNY   77  55  47 W20       30.14S
QUEBEC CITY    MOSUNNY   73  54  49 N17G24    30.07S
SHERBROOKE     PTSUNNY   70  55  60 N8G17     30.12F

_____REGIONAL ONTARIO LOCATIONS_____


CITY           SKY/WX    TMP DP  RH WIND       PRES   REMARKS
OTTAWA         MOSUNNY   75  54  46 NW9       30.20F

______KEY______
VSB  - VISIBILITY IN MILES
WCI  - WIND CHILL INDEX
HX   - HEAT INDEX
$$
NNNN



USA.gov is the U.S. government's official web portal to all federal, state and local government web resources and services.